[[{"header":{"parameterUnit":"m.s-1","parameterCategory":1,"la1":30.2991,"la2":30.254,"lo1":-89.0895,"lo2":-89.0444,"dy":0.0017,"dx":0.0017,"nx":28,"ny":28,"refTime":"2024-08-11T15:00:00:Z","depth":0,"parameterNumber":2,"parameterNumberName":"U-component_of_WINDS"},"data":[0,0,0,0,0,0,0,0,0,0,0,0,0,0,0,0,0,0,0,0,0,0,0,0,0,0,0,0,0,0,0,0,0,0,0,0,0,0,0,0,0,0,0,0,0,0,0,0,0,0,0,0,0,0,0,0,0,0,0.9347,0.9348,0,0.9456,0.9457,0.9458,0.9479,0.9479,0.9478,0.9477,0.9593,0.9596,0.96,0,0,0,0,0,0,0,0,0,0,0,0,0,0.916,0.9163,0.9347,0.9348,0.9349,0.9456,0.9457,0.9459,0.948,0.9479,0.9478,0.9477,0.9591,0.9596,0.9601,0,0,0,0,0,0,0,0,0,0,0,0,0,0.9252,0.9164,0.9346,0.9373,0.9376,0.9455,0.9457,0.9459,0.948,0.9479,0.9477,0.9476,0.959,0.9595,0.9601,0.9663,0,0,0.9619,0.9622,0,0,0,0,0,0,0,0,0.9247,0.9259,0.9367,0.9371,0.9375,0.9453,0.9434,0.9528,0.948,0.9441,0.9477,0.9475,0.9547,0.9557,0.958,0.9669,0.9674,0.962,0.9623,0.9626,0.9627,0,0,0,0,0,0,0,0.9241,0.9255,0.939,0.9369,0.9374,0.938,0.9392,0.9452,0.95,0.9444,0.9446,0.9458,0.9549,0.9574,0.9583,0.9675,0.9619,0.9625,0.9628,0.963,0.9821,0.9823,0,0,0,0,0,0,0.9229,0.9249,0.9387,0.9393,0.9306,0.9384,0.9398,0.9429,0.9499,0.9509,0.9459,0.9459,0.9565,0.9576,0.9587,0.9665,0.9626,0.9631,0.9634,0.982,0.9822,0.9824,0,0,0,0,0,0,0.9225,0.9241,0.9382,0.9322,0.934,0.9389,0.9424,0.9432,0.9457,0.9511,0.952,0.9476,0.9564,0.9579,0.9644,0.9669,0.9634,0.9639,0.9818,0.9821,0.9823,0.982,0,0,0,0,0,0,0.922,0.924,0.9263,0.9322,0.9343,0.9436,0.9426,0.9435,0.9467,0.9467,0.9529,0.9538,0.9565,0.9635,0.965,0.9676,0.9643,0.9816,0.9819,0.9822,0.9818,0.9822,0.9825,0,0,0,0,0,0.9213,0.9258,0.9264,0.928,0.9373,0.9437,0.945,0.9478,0.9469,0.9493,0.9528,0.9536,0.9664,0.9642,0.9658,0.9687,0.9815,0.9818,0.9822,0.9817,0.9821,0.9825,0,0,0,0,0,0,0.9202,0.9267,0.9273,0.9339,0.9382,0.9441,0.9472,0.9482,0.953,0.9529,0.9564,0.9578,0.9641,0.9671,0.9645,0.9751,0.9739,0.9746,0.9729,0.9734,0.9738,0.9729,0.9648,0,0,0,0,0,0.9207,0.9252,0.9307,0.936,0.9381,0.9423,0.9452,0.947,0.9517,0.9536,0.9575,0.9622,0.9672,0.9705,0.9755,0.9823,0.9837,0.9851,0.9854,0.9857,0.9863,0.9901,0.9908,0.9835,0.9835,0.9835,0,0,0.9218,0.9259,0.9286,0.9359,0.9395,0.9442,0.9438,0.9489,0.9525,0.9544,0.9608,0.9638,0.9692,0.9759,0.9791,0.9786,0.9886,0.9862,0.9863,0.9868,0.9906,0.9913,0.9919,0.9838,0.9837,0.9837,0,0,0.9263,0.9298,0.9346,0.9382,0.9436,0.9463,0.9475,0.9532,0.9552,0.9617,0.9632,0.9676,0.9763,0.98,0.9831,0.989,0.99,0.9906,0.9924,0.9962,0.9967,0.9973,0.9994,1.0001,0.9911,0.9911,0.9911,0,0.927,0.9341,0.937,0.942,0.9451,0.947,0.952,0.9553,0.9621,0.9643,0.9637,0.9746,0.9783,0.9859,0.9874,0.9898,0.9913,0.9899,0.9964,0.997,0.9975,0.9996,1.0004,0.9912,0.9911,0.9911,0.9911,0,0.9348,0.9397,0.9429,0.9493,0.9529,0.9578,0.9616,0.9649,0.9664,0.9692,0.9758,0.9804,0.9863,0.9883,0.9899,0.9962,0.9957,0.9957,0.9945,0.9982,1.0002,1.001,0.9912,0.9912,0.9912,0.9912,0,0,0.9388,0.9467,0.9478,0.9507,0.9568,0.9608,0.9659,0.9715,0.9743,0.979,0.9833,0.9906,0.9907,0.9941,0.9962,0.9995,1.0039,0.9991,0.9993,0.9998,1.0111,1.011,1.0119,1.0046,1.0047,1.0049,1.0107,0,0.9439,0.9529,0.9557,0.9632,0.9679,0.9698,0.9742,0.9785,0.9813,0.9857,0.9889,0.994,0.9937,0.9958,0.9991,1.0026,1.0062,1.0023,1.0088,1.009,1.0073,1.013,1.0129,1.0181,1.0115,1.0116,1.0117,0,0.9511,0.9558,0.9638,0.9693,0.9714,0.9753,0.9808,0.9849,0.9899,0.9917,0.9956,0.9974,1.0029,1.0014,1.0091,1.0063,1.0092,1.0113,1.0116,1.0123,1.0105,1.0138,1.0199,1.0206,1.013,1.0129,1.0128,0,0.9532,0.9615,0.9674,0.9698,0.9765,0.9792,0.9821,0.9869,0.9902,0.995,0.9971,1.0026,1.0056,1.0098,1.013,1.0116,1.0204,1.0192,1.0222,1.0221,1.0239,1.0237,1.0305,1.0258,1.0258,1.0258,1.0257,0,0.9587,0.9635,0.9684,0.972,0.9775,0.9807,0.9861,0.9891,0.9934,0.9977,0.9997,1.0037,1.0078,1.0124,1.015,1.021,1.0223,1.024,1.0246,1.0238,1.0236,1.0257,1.0254,1.026,1.0259,1.0259,1.0258,0,0.9619,0.9654,0.9719,0.9776,0.9792,0.983,0.988,0.9916,0.9945,0.9999,1.0014,1.006,1.0115,1.0152,1.0223,1.024,1.0305,1.0311,1.0288,1.0291,1.0318,1.0315,1.0402,1.0415,1.0359,1.0359,1.036,0,0.9651,0.9689,0.975,0.978,0.9809,0.9857,0.989,0.9923,0.9957,1.0017,1.0046,1.0102,1.0149,1.0236,1.0277,1.0331,1.0338,1.0365,1.0347,1.0337,1.0339,1.0336,1.034,1.0368,1.0368,1.0369,1.0369,0,0.9705,0.972,0.9767,0.982,0.9858,0.9902,0.9945,0.9969,1.001,1.0047,1.0103,1.0139,1.0211,1.0267,1.0326,1.0357,1.037,1.0374,1.0384,1.0376,1.0361,1.0369,1.0296,1.0372,1.0372,1.0372,1.0371,1.0371,0.9738,0.9773,0.9821,0.9872,0.9908,0.9949,0.9985,1.0019,1.0066,1.0126,1.0144,1.0202,1.0252,1.0331,1.0364,1.0411,1.0408,1.0422,1.0426,1.0428,1.0428,1.0353,1.0422,1.0422,1.0421,1.0421,1.0421,0,0.9793,0.9825,0.9872,0.9932,0.9972,0.998,1.0029,1.0063,1.0114,1.0158,1.0204,1.0268,1.0323,1.0368,1.0424,1.0453,1.0461,1.0467,1.0465,1.0472,1.0428,1.0413,1.046,1.046,1.046,1.046,1.046,1.046,0.9826,0.9884,0.9905,0.9982,1.0014,1.0071,1.0098,1.0136,1.0172,1.0243,1.0287,1.0316,1.0361,1.0421,1.0472,1.0484,1.0503,1.0508,1.0521,1.0479,1.0475,1.0471,1.0458,1.0512,1.0512,1.0562,1.0562,1.0562]},{"header":{"parameterUnit":"m.s-1","parameterCategory":1,"la1":30.2991,"la2":30.254,"lo1":-89.0895,"lo2":-89.0444,"dy":0.0017,"dx":0.0017,"nx":28,"ny":28,"refTime":"2024-08-11T15:00:00:Z","depth":0,"parameterNumber":3,"parameterNumberName":"V-component_of_WINDS"},"data":[0,0,0,0,0,0,0,0,0,0,0,0,0,0,0,0,0,0,0,0,0,0,0,0,0,0,0,0,0,0,0,0,0,0,0,0,0,0,0,0,0,0,0,0,0,0,0,0,0,0,0,0,0,0,0,0,0,0,3.4928,3.4927,0,3.4891,3.489,3.489,3.4872,3.4872,3.4872,3.4872,3.4833,3.4832,3.4831,0,0,0,0,0,0,0,0,0,0,0,0,0,3.498,3.4979,3.4928,3.4927,3.4927,3.4891,3.489,3.489,3.4872,3.4872,3.4872,3.4872,3.4833,3.4832,3.4831,0,0,0,0,0,0,0,0,0,0,0,0,0,3.4951,3.4979,3.4928,3.4914,3.4912,3.4891,3.489,3.489,3.4872,3.4872,3.4872,3.4872,3.4834,3.4832,3.4831,3.482,0,0,3.4826,3.4825,0,0,0,0,0,0,0,0,3.4953,3.4949,3.4916,3.4915,3.4913,3.4886,3.4894,3.4866,3.4872,3.4887,3.4872,3.4872,3.4851,3.4848,3.4841,3.4818,3.4817,3.4826,3.4825,3.4824,3.4824,0,0,0,0,0,0,0,3.4955,3.4951,3.4913,3.4916,3.4914,3.4908,3.4904,3.4889,3.4869,3.4886,3.4885,3.4881,3.485,3.4842,3.484,3.4816,3.4826,3.4824,3.4823,3.4823,3.4779,3.4779,0,0,0,0,0,0,3.496,3.4953,3.4914,3.4912,3.4933,3.4907,3.4903,3.4895,3.4869,3.4866,3.4881,3.488,3.4845,3.4841,3.4838,3.4822,3.4824,3.4823,3.4822,3.478,3.4779,3.4779,0,0,0,0,0,0,3.4961,3.4956,3.4916,3.4932,3.4926,3.4906,3.4897,3.4894,3.4887,3.4865,3.4861,3.4877,3.4845,3.484,3.4824,3.482,3.4822,3.482,3.478,3.478,3.4779,3.4791,0,0,0,0,0,0,3.4962,3.4957,3.4954,3.4932,3.4926,3.4904,3.4897,3.4893,3.4884,3.4883,3.4861,3.4857,3.4844,3.4827,3.4822,3.4818,3.4819,3.478,3.478,3.4779,3.4791,3.4791,3.4791,0,0,0,0,0,3.4964,3.4959,3.4954,3.4949,3.4921,3.4904,3.49,3.4886,3.4884,3.488,3.4865,3.4858,3.4821,3.4825,3.482,3.4815,3.478,3.478,3.4779,3.479,3.4791,3.4791,0,0,0,0,0,0,3.4981,3.4956,3.495,3.4938,3.4923,3.4901,3.4895,3.4887,3.4872,3.4872,3.4854,3.4849,3.4834,3.4823,3.4828,3.4802,3.48,3.4798,3.481,3.481,3.481,3.4813,3.4818,0,0,0,0,0,3.4983,3.4972,3.495,3.4941,3.4934,3.4916,3.4908,3.4898,3.4882,3.4875,3.486,3.4844,3.4828,3.4819,3.4804,3.4789,3.4782,3.4783,3.4783,3.4783,3.4782,3.477,3.4769,3.4778,3.4778,3.4778,0,0,3.4988,3.4973,3.4967,3.4944,3.4931,3.4918,3.4911,3.4898,3.4888,3.4873,3.4856,3.4844,3.4825,3.4808,3.4801,3.4799,3.4778,3.4783,3.4783,3.4782,3.477,3.4769,3.4768,3.4778,3.4778,3.4778,0,0,3.4989,3.4977,3.4967,3.4954,3.4935,3.4923,3.492,3.4899,3.489,3.4873,3.4861,3.4847,3.4822,3.4808,3.4797,3.479,3.4781,3.4785,3.4786,3.4775,3.4774,3.4774,3.4769,3.4767,3.4784,3.4784,3.4784,0,3.4997,3.4978,3.4963,3.495,3.494,3.4925,3.4914,3.4902,3.4879,3.4871,3.4869,3.4835,3.4821,3.48,3.4797,3.479,3.4785,3.4788,3.4776,3.4775,3.4774,3.4769,3.4767,3.4785,3.4785,3.4784,3.4784,0,3.4988,3.4974,3.4968,3.4945,3.4934,3.4922,3.4904,3.4894,3.4884,3.4871,3.4852,3.4835,3.4814,3.4808,3.48,3.4785,3.4784,3.4779,3.4777,3.4774,3.4769,3.4767,3.4785,3.4785,3.4785,3.4785,0,0,3.5,3.4967,3.4965,3.4954,3.493,3.4919,3.4905,3.4885,3.4875,3.4859,3.4845,3.4822,3.4817,3.4805,3.4794,3.4784,3.4776,3.478,3.4779,3.4778,3.4755,3.4758,3.4756,3.477,3.4769,3.4769,3.4756,0,3.4997,3.4972,3.4957,3.4938,3.4924,3.4908,3.4896,3.4879,3.4865,3.485,3.4835,3.4819,3.4814,3.4806,3.4796,3.4779,3.4771,3.478,3.4755,3.4754,3.476,3.4754,3.4758,3.4746,3.4754,3.4754,3.4754,0,3.4991,3.4974,3.4953,3.4928,3.4922,3.4911,3.489,3.4876,3.4855,3.4846,3.4831,3.4819,3.4801,3.48,3.4774,3.478,3.4769,3.4759,3.4758,3.4754,3.4754,3.4749,3.4743,3.4741,3.4751,3.4751,3.4751,0,3.4999,3.4972,3.4955,3.4946,3.4917,3.4909,3.4896,3.4876,3.4864,3.4845,3.4836,3.4815,3.4804,3.4787,3.4768,3.477,3.4743,3.4741,3.4733,3.4733,3.4728,3.4728,3.4718,3.4722,3.4722,3.4722,3.4723,0,3.4997,3.4985,3.4958,3.4948,3.4932,3.4914,3.4898,3.4884,3.4866,3.4851,3.4836,3.4822,3.4799,3.4782,3.4767,3.4746,3.4741,3.4732,3.4728,3.4732,3.4733,3.4724,3.4724,3.4722,3.4722,3.4722,3.4722,0,3.5005,3.4987,3.4967,3.4941,3.4934,3.4923,3.49,3.4888,3.4873,3.4854,3.4848,3.4824,3.4802,3.4783,3.4754,3.4744,3.4722,3.4717,3.4729,3.4726,3.4719,3.4719,3.4702,3.4698,3.4706,3.4706,3.4706,0,3.5004,3.4994,3.4966,3.4955,3.4943,3.4926,3.4913,3.4893,3.488,3.4854,3.4844,3.4821,3.4802,3.4767,3.4746,3.4723,3.4718,3.4713,3.4714,3.4718,3.4715,3.4716,3.4713,3.4713,3.4713,3.4713,3.4713,0,3.5004,3.4995,3.4978,3.4956,3.4941,3.4924,3.4905,3.4897,3.4873,3.4859,3.4836,3.4821,3.479,3.4767,3.4741,3.4726,3.4714,3.4713,3.4709,3.4714,3.472,3.4714,3.4728,3.4713,3.4713,3.4713,3.4713,3.4713,3.5006,3.4995,3.4973,3.4954,3.4938,3.492,3.4907,3.4889,3.4871,3.4845,3.4834,3.481,3.4786,3.475,3.4735,3.4714,3.4712,3.4708,3.4706,3.4705,3.4705,3.4724,3.471,3.471,3.471,3.471,3.4709,0,3.5004,3.4989,3.4971,3.4945,3.4929,3.492,3.4898,3.4884,3.4864,3.4843,3.4824,3.4796,3.4772,3.4748,3.4723,3.4711,3.4705,3.4705,3.4705,3.4701,3.471,3.4714,3.471,3.471,3.471,3.471,3.471,3.471,3.5001,3.4982,3.4969,3.494,3.4925,3.4902,3.489,3.4872,3.4855,3.4825,3.4805,3.479,3.4767,3.4739,3.4715,3.4709,3.4699,3.47,3.4692,3.47,3.4701,3.4701,3.4705,3.4698,3.4698,3.4684,3.4684,3.4684]}]]